Jilin-1 GaoFen 07B 01 xing

operational
NORAD ID: 66994 Int'l Des: 2025-292 Owner: CGSTL Country: CN Constellation: jilin-1
LEOCIRCULARRETROGRADESSO

About Jilin-1 GaoFen 07B 01 xing

Description loading...

Live Position

Loading 3D Globe...

Upcoming Passes

Altitude History

Altitude vs Time

uPlot chart will show altitude changes over time

Two-Line Element Set

1 66994U 25292B 25347.27239420 .00009245 00000-0 66207-3 0 9998
2 66994 97.6543 59.8186 0013707 271.7144 88.2512 15.04546785 473
Epoch: Dec 13, 2025 • Age: 19 hours

Current Status

Altitude 558.4 km
Velocity 7.58 km/s
Sub-Earth Point 17.61°N, 51.36°W
Launch Date Dec 10, 2025
Age 4 days
Type other

Technical Details

Classification Payload
Mass 50.00 kg
Dry Mass 50.00 kg
Total Mass 50.00 kg
Length 1.50 m
Diameter 1.00 m
Span 1.50 m
Shape Box
Manufacturer CGSTL
Bus Type JL-1GF07
Phase Status In Orbit
Owner/State CGSTL/CN

Large Constellations

Loading constellations...